Location: Crayja
(6.2254°N, 10.6273°W)
Time: 13:33:25
(UTC+00:00)

NOSS 3-1 (C) - Pass Details

Date: 17 February 2020
Orbit: 759 x 1449 km, 63.4° (Epoch: 26 March)

Event Time Altitude Azimuth Distance (km) Brightness Sun altitude
Rises 06:28:09 0° 331° (NNW) 4,372 6.5 -8.2°
Reaches altitude 10° 06:30:58 10° 329° (NNW) 3,458 6.0 -7.5°
Maximum altitude 06:39:35 69° 248° (WSW) 1,533 4.4 -5.4°
Drops below altitude 10° 06:48:23 10° 166° (SSE) 3,520 6.8 -3.3°
Sets 06:51:17 0° 164° (SSE) 4,454 7.4 -2.6°
